Hourly Data Report for February 01, 2003

SHERBROOKE A
QUEBEC

45°26'00.000" N
71°41'00.000" W
241.40 m
7028124
71610
YSC

Download Data

Hourly Data (February 2003)
Hourly Data Report for February 1, 2003
TIME
LST
Temp Definition
°C
Dew Point Definition
°C
Rel Hum Definition
%
Precip. Amount Definition
mm

Wind Dir Definition
10's deg

Wind Spd Definition
km/h
Visibility Definition
km
Stn Press Definition
kPa
Hmdx Definition


Wind Chill Definition


Weather Definition


00:00 -6.7 -10.5 74   9 7 15.0 99.10   -10  
01:00 -5.8 -9.7 74   12 7 15.0 99.04   -9  
02:00 -4.5 -9.2 70   11 7 15.0 98.98   -8  
03:00 -6.0 -10.0 73   8 6 15.0 98.92   -9  
04:00 -5.8 -9.9 73   5 6 15.0 98.86   -9  
05:00 -6.2 -10.5 72   6 7 15.0 98.80   -10  
06:00 -6.1 -10.2 73   7 6 15.0 98.76   -9  
07:00 -6.0 -10.4 71   5 7 15.0 98.75   -9  
08:00 -5.8 -10.3 70   7 9 24.1 98.73   -10 Mostly Cloudy
09:00 -5.0 -10.1 67   5 7 24.1 98.67   -8 Cloudy
10:00 -3.5 -9.3 64   7 9 24.1 98.61   -7 Cloudy
11:00 -1.9 -8.8 59     0 24.1 98.54     Cloudy
12:00 0.1 -8.0 54     0 24.1 98.39     Cloudy
13:00 1.1 -7.1 54   35 6 24.1 98.24     Cloudy
14:00 1.8 -6.9 52     0 24.1 98.25     Cloudy
15:00 2.5 -7.2 49   4 6 24.1 98.17     Mostly Cloudy
16:00 2.6 -6.8 50   5 6 24.1 98.15     Mostly Cloudy
17:00 1.9 -6.9 52   5 6 24.1 98.13     Cloudy
18:00 1.6 -6.6 54   6 7 15.0 98.17      
19:00 1.7 -7.2 52   5 7 15.0 98.10      
20:00 1.3 -7.5 52   5 7 15.0 98.02      
21:00 1.1 -7.5 53   4 13 15.0 97.92      
22:00 0.6 -7.1 56   4 13 15.0 97.77      
23:00 0.3 -6.4 61   5 9 15.0 97.84      

Notes on Data Quality.

Legend

  • E = Estimated
  • M = Missing
  • NA = Not Available*
  • [empty] = Indicates an unobserved value
Date modified: